Terminal Aerodrome Forecast
Issued by NWS

Home | Current Version | Previous Version | Text Only | Print | Product List | Glossary On
Versions: 1 2 3 4 5 6 7 8 9 10 11 12 13 14 15 16 17 18 19
000
FTUS46 KMTR 191100 AAA
TAFSNS
TAF AMD
KSNS 191100Z 1911/2006 26010KT P6SM OVC012
     FM191700 26005KT P6SM SCT007 BKN015
     FM191900 28008KT P6SM SCT015
     FM192100 26012KT P6SM SKC=

USA.gov is the U.S. government's official web portal to all federal, state and local government web resources and services.